Wind_Speed
13 12 12 12 12 11 11 10 11 11 11 11 10 10 10 9 8 7 7 6 6 6 6 5 5 4 4 4 3 3 2 2 1 1 1 2 2 3 4 5 5 6 6
15 14 14 14 13 13 12 12 12 12 12 12 12 11 11 10 10 9 9 8 7 7 7 7 6 6 6 5 5 4 4 4 3 2 2 3 3 4 5 5 6 6 6
17 17 16 16 15 15 14 14 14 14 14 14 13 13 12 12 12 11 10 9 9 9 9 8 8 7 7 7 6 6 5 5 5 4 4 4 5 5 5 6 7 7 7
18 18 18 18 17 16 16 16 16 16 16 16 15 15 14 14 13 12 11 11 11 10 10 9 9 9 9 8 8 7 7 7 6 6 6 6 6 6 7 7 8 8 9
20 20 19 19 19 18 18 17 17 17 16 16 16 16 15 16 15 14 13 13 12 12 11 11 11 11 10 10 10 9 9 9 8 8 9 9 8 8 9 9 9 9 10
22 22 21 21 20 20 20 19 18 18 18 18 17 17 17 16 16 15 15 14 14 14 13 13 13 13 13 12 11 11 11 10 10 10 10 10 10 10 10 10 10 11 11
24 24 23 22 22 22 22 21 20 20 20 20 19 19 18 18 18 17 16 16 16 16 15 16 15 15 14 14 14 13 13 13 12 12 12 12 12 11 12 11 12 12 12
26 26 25 25 24 24 23 23 22 22 22 21 21 21 20 20 19 19 18 18 18 17 17 18 18 17 17 16 16 16 15 15 14 14 14 14 13 13 13 13 13 13 14
28 27 27 27 27 26 26 25 24 24 24 24 23 23 22 22 22 21 20 19 19 19 18 18 19 19 19 18 18 18 17 17 17 16 16 16 15 15 15 15 15 15 15
31 30 29 29 29 28 28 28 27 26 26 26 26 25 24 24 23 22 22 21 21 20 20 20 20 20 20 20 20 20 19 19 18 18 18 18 17 16 16 16 16 16 17
33 32 32 31 31 30 30 30 29 29 28 28 28 27 27 26 25 24 24 23 23 22 22 21 21 22 22 22 22 21 21 21 20 20 20 20 19 18 18 17 18 18 19
34 34 34 34 33 32 32 31 31 31 31 30 30 29 29 28 27 26 26 25 25 24 23 23 23 24 24 24 23 23 23 22 22 22 21 21 21 21 19 19 19 20 20
36 36 36 35 35 35 34 33 33 33 33 33 32 32 31 30 29 29 28 27 27 26 25 25 25 25 25 25 25 25 24 24 23 23 23 23 23 22 21 21 21 21 21
38 38 37 37 37 37 36 36 35 35 35 35 34 34 33 32 31 30 30 30 29 28 28 27 27 27 27 27 27 26 26 26 25 25 25 25 24 24 24 23 23 23 23
41 40 40 39 39 39 39 38 38 37 36 36 35 35 35 34 34 32 32 32 32 31 30 29 29 29 28 28 28 28 27 27 27 27 27 26 26 25 25 25 24 24 24
43 42 42 42 42 41 40 40 39 39 39 38 37 36 36 35 35 34 33 33 33 33 33 32 31 30 30 30 30 30 30 30 29 29 28 28 27 27 27 27 26 26 26
45 44 44 44 44 42 42 40 40 40 40 40 39 38 38 37 36 36 35 35 34 34 34 34 33 33 32 32 32 31 32 32 31 30 30 29 29 29 28 28 27 27 27
46 46 46 45 45 45 44 42 41 41 42 41 41 40 40 39 38 37 37 36 36 36 35 35 35 35 34 33 33 33 33 33 33 32 31 31 30 30 30 30 29 29 28
47 47 47 47 47 46 46 45 44 43 43 43 43 42 41 40 40 39 39 38 38 37 37 37 36 36 36 35 35 35 35 34 35 34 33 33 32 31 31 31 31 31 30
47 47 48 48 47 46 46 45 45 44 44 44 43 43 42 42 41 41 41 40 40 40 39 38 38 37 37 37 36 36 36 36 36 36 35 34 34 33 33 33 33 33 33
47 47 47 47 47 47 47 45 45 45 44 44 43 43 43 43 42 42 42 42 43 42 40 40 39 39 38 38 38 37 37 36 37 37 37 36 36 35 35 35 35 35 35
46 47 47 47 47 47 47 46 46 45 45 44 44 44 43 42 42 42 42 42 42 42 42 42 41 41 40 39 39 39 38 38 38 38 39 38 37 38 37 36 36 36 37
45 46 47 47 47 47 47 47 46 45 45 45 45 45 44 43 43 43 43 43 43 43 42 42 41 41 41 41 41 40 40 39 39 39 40 40 40 39 39 38 38 39 39
45 46 47 47 46 46 46 46 46 45 45 45 45 44 44 44 43 44 44 43 43 43 43 42 42 42 42 42 42 42 41 41 40 40 41 41 42 41 41 41 40 40 40
45 46 46 46 46 46 47 46 46 45 45 45 45 45 45 45 44 44 44 44 43 44 44 43 43 42 42 43 43 43 44 44 43 42 41 41 41 42 42 42 42 42 41
45 46 46 46 47 47 46 46 46 46 45 46 46 45 45 44 44 44 44 44 44 44 44 44 44 43 43 43 43 44 45 45 44 43 43 42 42 42 42 42 42 42 42
Wind_Direction
250 250 248 246 247 248 247 247 247 245 244 240 239 241 242 243 246 247 248 246 243 241 236 232 229 228 225 221 224 228 232 241 247 255 287 314 330 330 333 339 338 341 340
251 250 248 247 247 249 249 249 249 248 247 241 239 242 243 246 249 253 253 251 248 245 240 236 236 236 234 232 233 236 240 248 260 272 288 302 314 319 321 327 332 332 331
250 250 249 247 247 248 249 250 251 249 248 246 243 244 245 248 251 253 253 252 251 248 244 241 239 239 237 237 241 244 247 254 264 274 285 295 306 309 313 318 322 325 323
251 251 250 249 248 248 249 250 252 250 249 250 248 247 249 252 253 253 253 253 253 249 246 244 242 242 240 242 247 249 251 257 263 272 279 285 292 301 306 311 316 318 318
251 251 250 250 249 249 249 250 251 251 250 250 250 251 253 254 253 253 254 255 253 250 247 245 245 246 246 247 250 252 255 259 263 270 276 281 286 293 299 305 309 311 312
251 251 250 250 250 249 250 250 251 251 252 253 254 254 254 255 255 255 255 255 254 251 248 246 248 250 251 251 252 255 258 261 265 270 275 279 284 289 294 299 302 304 306
251 251 251 250 251 251 251 252 252 253 254 255 255 256 256 256 255 256 257 256 254 253 251 248 248 251 253 254 256 257 259 262 266 269 273 278 281 285 289 294 297 300 303
252 251 252 252 251 252 253 253 253 254 255 256 255 255 256 255 255 255 256 255 254 254 254 251 250 252 254 256 257 259 260 263 266 268 272 276 279 283 287 290 294 297 300
252 253 253 253 252 253 254 255 253 254 256 256 257 256 256 256 255 255 255 255 255 255 255 255 254 253 254 256 257 259 262 264 266 269 271 274 278 282 285 287 291 294 296
253 253 253 254 253 253 253 255 254 254 255 256 257 257 257 256 256 256 256 256 256 256 256 257 256 255 256 257 259 260 262 264 266 268 270 273 277 281 283 285 289 292 294
253 253 253 253 253 252 253 254 255 255 255 256 256 256 256 256 256 257 256 256 256 256 257 258 258 257 258 258 259 261 262 263 265 267 269 272 275 278 280 283 287 290 292
254 254 254 254 254 254 254 254 255 256 256 256 255 255 255 254 255 257 257 256 256 256 257 258 259 259 259 259 258 260 263 264 265 266 268 270 273 276 278 281 285 288 290
254 254 254 254 253 254 255 255 256 256 257 256 255 254 253 253 254 256 257 256 256 257 258 259 259 260 260 260 260 261 263 264 264 266 268 269 271 274 276 279 283 285 287
254 254 254 254 254 254 254 255 256 257 257 256 255 255 253 253 253 254 256 256 257 257 257 258 259 260 261 261 261 261 263 263 264 265 267 269 270 272 273 277 281 283 285
254 254 255 255 255 254 254 255 256 257 256 255 255 255 254 254 253 253 254 256 257 257 258 259 259 260 261 261 261 261 262 264 265 265 267 268 269 271 272 275 279 282 285
254 254 254 255 255 255 255 255 256 256 255 255 254 254 254 253 254 254 254 256 257 257 257 259 259 260 261 260 261 262 263 265 266 266 267 267 269 270 272 274 277 280 282
253 253 254 254 254 254 254 254 255 256 255 254 253 253 253 253 254 255 255 256 257 258 259 259 259 259 261 261 262 263 264 265 265 266 266 267 268 270 272 274 276 279 281
254 254 253 253 252 253 253 254 255 255 254 253 253 254 254 254 253 254 255 256 257 258 259 260 260 259 260 262 263 263 264 265 265 265 266 267 269 270 271 273 275 278 281
254 254 253 252 252 252 252 253 254 254 254 253 253 253 254 255 254 255 255 256 257 258 259 260 261 261 260 261 263 264 264 265 265 265 265 266 268 271 272 273 274 276 279
254 253 252 252 251 251 252 252 253 253 254 253 253 253 254 254 255 255 256 257 259 259 260 261 261 262 262 262 263 263 264 264 264 264 264 266 268 270 272 273 274 275 277
254 253 252 252 251 251 251 252 253 252 253 253 253 253 253 254 256 256 256 258 259 259 259 260 260 261 262 263 262 262 264 264 264 265 265 266 268 269 271 273 275 275 276
254 254 252 251 252 251 250 251 251 251 251 251 251 252 253 254 255 256 256 257 257 258 258 259 261 261 262 262 262 262 263 264 265 265 265 265 267 269 271 273 276 277 276
254 253 252 252 252 250 249 249 250 251 251 251 253 253 253 254 255 255 256 256 256 257 258 259 260 261 262 262 261 262 263 263 265 265 266 265 266 268 271 273 276 278 277
254 253 252 251 249 248 248 248 249 251 251 251 253 253 254 255 256 256 255 256 257 257 258 259 260 261 261 261 262 262 264 265 265 266 266 266 267 268 270 272 275 277 278
254 253 252 250 248 246 247 247 249 250 250 250 251 252 254 255 256 257 256 256 257 258 258 259 260 261 261 261 261 262 263 265 266 266 265 265 267 269 271 272 275 276 277
255 253 251 249 247 245 245 247 249 249 250 251 251 252 253 255 256 256 256 256 257 259 260 260 260 261 262 261 262 263 264 264 264 264 265 266 267 269 270 272 274 276 277
Height
5840 5841 5842 5842 5843 5844 5845 5846 5846 5847 5847 5848 5849 5849 5850 5850 5851 5851 5852 5852 5853 5853 5854 5854 5855 5855 5855 5856 5856 5856 5857 5857 5857 5857 5857 5857 5858 5857 5857 5857 5857 5856 5856
5838 5838 5839 5840 5841 5842 5843 5844 5844 5845 5846 5846 5847 5847 5848 5849 5849 5850 5851 5851 5852 5852 5853 5853 5854 5854 5854 5855 5855 5856 5856 5856 5856 5857 5857 5857 5857 5857 5856 5856 5856 5855 5855
5835 5836 5837 5837 5838 5840 5841 5842 5842 5843 5843 5844 5845 5845 5846 5847 5847 5848 5849 5849 5850 5850 5851 5851 5852 5853 5853 5854 5854 5855 5855 5855 5855 5856 5856 5856 5856 5856 5855 5855 5855 5854 5854
5832 5833 5834 5835 5836 5837 5838 5839 5840 5840 5841 5842 5842 5843 5844 5845 5845 5846 5847 5847 5848 5849 5849 5850 5850 5851 5852 5852 5853 5853 5854 5854 5854 5855 5855 5855 5855 5854 5854 5854 5853 5853 5852
5829 5830 5830 5832 5832 5834 5835 5836 5837 5837 5838 5839 5840 5840 5841 5842 5843 5843 5844 5845 5845 5846 5847 5847 5848 5849 5850 5850 5851 5851 5852 5852 5853 5853 5853 5853 5853 5853 5852 5852 5852 5851 5851
5825 5826 5827 5828 5829 5830 5831 5832 5833 5834 5835 5836 5837 5837 5838 5839 5839 5840 5841 5842 5842 5843 5844 5845 5846 5847 5847 5848 5849 5849 5850 5850 5851 5851 5851 5851 5851 5851 5851 5850 5850 5849 5849
5820 5822 5823 5824 5825 5826 5827 5828 5829 5830 5831 5832 5833 5834 5834 5835 5836 5837 5838 5839 5839 5840 5841 5842 5843 5844 5845 5845 5846 5847 5847 5848 5849 5849 5849 5849 5849 5849 5848 5848 5847 5847 5846
5815 5817 5818 5819 5821 5822 5823 5824 5825 5826 5827 5828 5829 5830 5830 5831 5832 5833 5834 5835 5836 5837 5838 5839 5840 5840 5841 5842 5843 5844 5844 5845 5846 5846 5846 5846 5846 5846 5845 5845 5845 5844 5843
5809 5811 5813 5814 5816 5817 5818 5819 5820 5821 5822 5824 5824 5825 5826 5827 5828 5829 5830 5831 5832 5833 5834 5835 5836 5837 5837 5838 5839 5840 5841 5842 5843 5843 5843 5843 5843 5843 5842 5842 5842 5841 5841
5803 5805 5807 5809 5810 5811 5813 5814 5815 5816 5817 5818 5819 5820 5821 5822 5823 5824 5826 5827 5828 5829 5830 5831 5832 5833 5833 5834 5835 5836 5837 5838 5839 5839 5840 5840 5840 5839 5839 5839 5838 5838 5837
5797 5799 5801 5802 5804 5805 5807 5808 5809 5810 5811 5812 5814 5815 5816 5817 5818 5820 5821 5822 5823 5824 5825 5826 5827 5828 5829 5830 5831 5832 5833 5834 5835 5835 5836 5836 5836 5835 5835 5835 5835 5834 5834
5790 5792 5793 5795 5797 5799 5800 5802 5803 5804 5805 5806 5808 5809 5810 5812 5813 5815 5816 5817 5818 5820 5821 5822 5823 5823 5824 5825 5826 5827 5828 5829 5830 5830 5831 5831 5831 5831 5831 5831 5831 5830 5830
5782 5784 5786 5788 5789 5791 5793 5794 5796 5797 5799 5800 5801 5803 5804 5806 5808 5809 5810 5812 5813 5814 5815 5816 5817 5818 5819 5820 5821 5822 5823 5824 5825 5825 5826 5826 5827 5827 5827 5826 5826 5826 5825
5774 5776 5778 5780 5782 5783 5785 5787 5788 5790 5791 5793 5794 5796 5797 5799 5801 5803 5805 5806 5807 5808 5810 5811 5812 5813 5814 5815 5815 5816 5817 5818 5819 5820 5821 5821 5821 5821 5821 5821 5821 5821 5820
5765 5767 5769 5771 5773 5775 5777 5779 5780 5782 5783 5785 5787 5788 5790 5792 5794 5796 5798 5799 5801 5802 5803 5804 5806 5807 5808 5809 5810 5811 5812 5813 5814 5814 5815 5815 5816 5816 5816 5816 5815 5815 5814
5755 5757 5760 5762 5764 5766 5768 5770 5771 5773 5775 5777 5779 5781 5783 5785 5787 5789 5791 5792 5793 5795 5796 5797 5799 5800 5801 5802 5803 5804 5805 5806 5807 5808 5809 5809 5809 5810 5810 5810 5810 5809 5809
5744 5747 5750 5752 5754 5756 5758 5761 5762 5764 5766 5768 5770 5772 5774 5777 5779 5781 5783 5785 5786 5787 5789 5790 5791 5793 5794 5795 5797 5798 5798 5799 5800 5801 5802 5802 5803 5803 5803 5803 5803 5803 5803
5733 5736 5739 5741 5743 5746 5748 5751 5753 5755 5757 5759 5762 5764 5766 5768 5771 5773 5775 5777 5778 5780 5781 5783 5784 5785 5787 5788 5789 5790 5791 5792 5793 5794 5795 5796 5796 5796 5797 5797 5797 5796 5796
5722 5724 5727 5729 5733 5735 5738 5740 5743 5745 5747 5750 5752 5755 5757 5759 5762 5764 5766 5768 5770 5771 5773 5775 5776 5777 5779 5780 5782 5783 5784 5785 5786 5787 5788 5788 5789 5789 5789 5790 5790 5789 5789
5710 5712 5715 5718 5721 5724 5727 5730 5732 5735 5737 5740 5743 5745 5748 5750 5752 5755 5757 5759 5761 5763 5765 5766 5768 5769 5771 5772 5774 5775 5776 5777 5778 5779 5780 5780 5781 5782 5782 5782 5782 5782 5781
5698 5700 5703 5706 5710 5713 5716 5719 5722 5725 5728 5730 5733 5735 5737 5740 5743 5745 5747 5749 5751 5753 5755 5757 5759 5761 5762 5763 5765 5766 5767 5768 5770 5770 5771 5772 5773 5773 5774 5774 5774 5774 5773
5686 5689 5691 5695 5698 5702 5705 5709 5711 5714 5717 5719 5722 5725 5728 5730 5732 5735 5737 5739 5741 5743 5746 5748 5750 5751 5753 5754 5755 5757 5759 5760 5761 5762 5763 5764 5764 5765 5765 5766 5765 5765 5764
5674 5677 5680 5683 5686 5690 5693 5697 5699 5702 5705 5709 5712 5715 5717 5720 5722 5725 5727 5729 5731 5734 5736 5738 5740 5742 5743 5745 5746 5747 5749 5751 5752 5753 5754 5755 5756 5756 5756 5756 5756 5756 5755
5663 5665 5668 5671 5674 5678 5681 5685 5688 5691 5695 5699 5701 5704 5707 5709 5712 5714 5717 5719 5721 5723 5726 5728 5729 5731 5733 5734 5736 5737 5739 5740 5742 5743 5745 5745 5746 5747 5747 5747 5747 5746 5745
5651 5654 5656 5659 5662 5666 5670 5673 5677 5680 5683 5687 5690 5693 5696 5698 5701 5703 5706 5709 5711 5713 5715 5717 5719 5721 5723 5724 5726 5727 5728 5729 5731 5732 5734 5736 5736 5736 5737 5737 5737 5736 5735
5639 5641 5644 5647 5650 5654 5658 5662 5665 5668 5672 5675 5678 5682 5685 5687 5690 5692 5695 5698 5701 5703 5705 5707 5709 5710 5712 5714 5715 5716 5718 5719 5720 5721 5723 5725 5726 5727 5726 5726 5726 5725 5724